Weather in Puerto Madryn

Argentina     42°45′26″S   65°04′40″W
temp.,
°C
wind,
m/s
gust,
m/s
humid.,
%
clouds,
%
prec.,
mm/h
press.,
hPa
HPBL,
m
6 may, thu
thu600:00+11w2254100 0.0 102579
03:00+11nw3355100 0.0 102591
06:00+10nnw565594 0.0 1023126
09:00+10n34505 0.0 102399
12:00+13ene234255 0.0 1023280
15:00+14e65483 0.0 1022539
18:00+13e56542 0.0 1022283
21:00+13e67605 0.0 1023344
7 may, fri
fri700:00+12ene576397 0.0 1023287
03:00+12ne69675 0.0 1022329
06:00+12nne710675 0.0 1021322
09:00+12n711685 0.0 1021334
12:00+15n912505 0.0 1020781
15:00+16n11135347 0.0 1018907
18:00+15n1015625 0.0 1018502
21:00+15n9166494 0.0 1018433
8 may, sat
sat800:00+15n111965100 0.0 1017509
03:00+14n111965100 0.0 1016544
06:00+13n11186991 0.0 1015463
09:00+13n111872100 0.0 1015466
12:00+15n131861100 0.0 1014689
15:00+18nnw121551100 0.0 1012845
18:00+17nnw11165699 0.0 1012400
21:00+15nw71062100 0.0 1013162
9 may, sun
sun900:00+15wsw4452100 0.0 101551
03:00+14sw71451100 0.0 1016412
06:00+12wsw814565 0.0 1017434
09:00+12sw813584 0.0 1020565
12:00+14ssw910430 0.0 1022931
15:00+15s67400 0.0 10221422
18:00+13ese33510 0.0 1023334
21:00+12ne33590 0.0 1024220
10 may, mon
mon1000:00+11nnw45650 0.0 1024156
03:00+11nw56690 0.0 1025148
06:00+10wnw33560 0.0 102478
09:00+10s34545 0.0 1026111
12:00+13se34540 0.0 1026455
15:00+16n78410 0.0 1026751
18:00+13e44660 0.0 1024247
21:00+12ne45700 0.0 1025272